EN

Hourly Weather Kyshen'ky

Today, 30 July, Friday

Time Temperature Precipitation Wind Pressure Humidity
00:00 +21°C° 0.2 mm 3 mps 750 mmHg 87%
01:00 +22°C° 0.2 mm 3 mps 750 mmHg 87%
02:00 +23°C° 0 mm 2 mps 750 mmHg 84%
03:00 +23°C° 0 mm 2 mps 750 mmHg 84%
04:00 +23°C° 0 mm 2 mps 750 mmHg 84%
05:00 +23°C° 0 mm 2 mps 750 mmHg 84%
06:00 +25°C° 0.1 mm 2 mps 750 mmHg 79%
07:00 +26°C° 0.1 mm 3 mps 750 mmHg 74%
08:00 +27°C° 0 mm 3 mps 751 mmHg 70%
09:00 +28°C° 0 mm 3 mps 751 mmHg 64%
10:00 +29°C° 0 mm 3 mps 750 mmHg 59%
11:00 +31°C° 0 mm 3 mps 750 mmHg 53%
12:00 +31°C° 0 mm 3 mps 750 mmHg 50%
13:00 +33°C° 0 mm 3 mps 750 mmHg 46%
14:00 +33°C° 0 mm 4 mps 750 mmHg 44%
15:00 +33°C° 0 mm 4 mps 750 mmHg 43%
16:00 +32°C° 0 mm 4 mps 750 mmHg 43%
17:00 +32°C° 0 mm 5 mps 750 mmHg 43%
18:00 +29°C° 0 mm 4 mps 750 mmHg 46%
19:00 +28°C° 0 mm 4 mps 750 mmHg 49%
20:00 +26°C° 0 mm 4 mps 751 mmHg 52%
21:00 +26°C° 0 mm 3 mps 751 mmHg 53%
22:00 +25°C° 0 mm 3 mps 751 mmHg 54%
23:00 +24°C° 0 mm 3 mps 751 mmHg 55%

Tomorrow, 31 July, Saturday

Time Temperature Precipitation Wind Pressure Humidity
00:00 +24°C° 0 mm 3 mps 751 mmHg 57%
01:00 +22°C° 0 mm 3 mps 751 mmHg 59%
02:00 +21°C° 0 mm 2 mps 751 mmHg 61%
03:00 +21°C° 0 mm 2 mps 752 mmHg 61%
04:00 +23°C° 0 mm 2 mps 752 mmHg 61%
05:00 +23°C° 0 mm 1 mps 752 mmHg 61%
06:00 +24°C° 0 mm 1 mps 752 mmHg 56%
07:00 +26°C° 0 mm 1 mps 752 mmHg 51%
08:00 +28°C° 0 mm 2 mps 752 mmHg 46%
09:00 +29°C° 0 mm 2 mps 752 mmHg 42%
10:00 +31°C° 0 mm 2 mps 752 mmHg 37%
11:00 +32°C° 0 mm 2 mps 752 mmHg 32%
12:00 +34°C° 0 mm 2 mps 752 mmHg 31%
13:00 +34°C° 0 mm 2 mps 752 mmHg 30%
14:00 +35°C° 0 mm 2 mps 752 mmHg 29%
15:00 +35°C° 0 mm 2 mps 752 mmHg 30%
16:00 +34°C° 0 mm 2 mps 752 mmHg 31%
17:00 +34°C° 0 mm 2 mps 752 mmHg 32%
18:00 +31°C° 0 mm 2 mps 752 mmHg 35%
19:00 +30°C° 0 mm 2 mps 752 mmHg 39%
20:00 +28°C° 0 mm 1 mps 752 mmHg 43%
21:00 +27°C° 0 mm 1 mps 752 mmHg 44%
22:00 +27°C° 0 mm 1 mps 752 mmHg 45%
23:00 +26°C° 0 mm 1 mps 753 mmHg 46%

Day after tomorrow, 1 August, Sunday

Time Temperature Precipitation Wind Pressure Humidity
00:00 +26°C° 0 mm 1 mps 753 mmHg 48%
01:00 +25°C° 0 mm 1 mps 753 mmHg 49%
02:00 +25°C° 0 mm 1 mps 753 mmHg 50%
03:00 +25°C° 0 mm 1 mps 753 mmHg 52%
04:00 +24°C° 0 mm 1 mps 753 mmHg 53%
05:00 +22°C° 0 mm 0 mps 753 mmHg 54%
06:00 +26°C° 0 mm 1 mps 753 mmHg 49%
07:00 +28°C° 0 mm 1 mps 753 mmHg 44%
08:00 +31°C° 0 mm 1 mps 753 mmHg 39%
09:00 +32°C° 0 mm 1 mps 753 mmHg 36%
10:00 +34°C° 0 mm 2 mps 753 mmHg 33%
11:00 +35°C° 0 mm 2 mps 753 mmHg 29%
12:00 +36°C° 0 mm 2 mps 753 mmHg 28%
13:00 +36°C° 0 mm 2 mps 752 mmHg 27%
14:00 +37°C° 0 mm 3 mps 752 mmHg 25%
15:00 +37°C° 0 mm 3 mps 752 mmHg 26%
16:00 +36°C° 0 mm 3 mps 752 mmHg 26%
17:00 +36°C° 0 mm 3 mps 752 mmHg 27%
18:00 +34°C° 0 mm 3 mps 752 mmHg 31%
19:00 +31°C° 0 mm 3 mps 752 mmHg 35%
20:00 +29°C° 0 mm 3 mps 752 mmHg 39%
21:00 +28°C° 0 mm 3 mps 752 mmHg 41%
22:00 +28°C° 0 mm 3 mps 752 mmHg 42%
23:00 +27°C° 0 mm 3 mps 752 mmHg 44%

2 August, Monday

Time Temperature Precipitation Wind Pressure Humidity
00:00 +26°C° 0 mm 3 mps 752 mmHg 45%
01:00 +26°C° 0 mm 3 mps 752 mmHg 47%
02:00 +25°C° 0 mm 3 mps 752 mmHg 49%
03:00 +25°C° 0 mm 3 mps 752 mmHg 52%
04:00 +25°C° 0 mm 3 mps 752 mmHg 54%
05:00 +25°C° 0 mm 2 mps 752 mmHg 56%
06:00 +27°C° 0 mm 3 mps 752 mmHg 51%
07:00 +29°C° 0 mm 3 mps 752 mmHg 45%
08:00 +33°C° 0 mm 3 mps 752 mmHg 40%
09:00 +34°C° 0 mm 4 mps 752 mmHg 36%
10:00 +36°C° 0 mm 5 mps 752 mmHg 33%
11:00 +37°C° 0 mm 5 mps 752 mmHg 29%
12:00 +39°C° 0 mm 6 mps 751 mmHg 28%
13:00 +39°C° 0 mm 6 mps 751 mmHg 27%
14:00 +39°C° 0 mm 6 mps 751 mmHg 26%
15:00 +39°C° 0 mm 5 mps 750 mmHg 27%
16:00 +38°C° 0 mm 4 mps 750 mmHg 28%
17:00 +37°C° 0 mm 4 mps 749 mmHg 29%
18:00 +35°C° 0.1 mm 3 mps 749 mmHg 34%
19:00 +33°C° 0.1 mm 3 mps 750 mmHg 40%
20:00 +30°C° 0.1 mm 3 mps 750 mmHg 45%
21:00 +28°C° 0.6 mm 3 mps 750 mmHg 53%
22:00 +27°C° 0.6 mm 3 mps 750 mmHg 62%
23:00 +25°C° 0.6 mm 3 mps 750 mmHg 70%

3 August, Tuesday

Time Temperature Precipitation Wind Pressure Humidity
00:00 +24°C° 0.1 mm 2 mps 750 mmHg 73%
01:00 +24°C° 0.1 mm 2 mps 750 mmHg 76%
02:00 +23°C° 0.1 mm 2 mps 750 mmHg 79%
03:00 +23°C° 0 mm 2 mps 750 mmHg 83%
04:00 +21°C° 0 mm 3 mps 751 mmHg 86%
05:00 +21°C° 0 mm 3 mps 751 mmHg 89%
06:00 +22°C° 0 mm 4 mps 751 mmHg 82%
07:00 +23°C° 0 mm 5 mps 752 mmHg 76%
08:00 +25°C° 0 mm 5 mps 752 mmHg 70%
09:00 +26°C° 0 mm 5 mps 752 mmHg 62%
10:00 +28°C° 0 mm 5 mps 752 mmHg 53%
11:00 +29°C° 0 mm 5 mps 753 mmHg 45%
12:00 +30°C° 0 mm 5 mps 753 mmHg 41%
13:00 +30°C° 0 mm 5 mps 753 mmHg 38%
14:00 +32°C° 0 mm 5 mps 753 mmHg 34%
15:00 +30°C° 0 mm 5 mps 753 mmHg 34%
16:00 +30°C° 0 mm 5 mps 753 mmHg 34%
17:00 +30°C° 0 mm 6 mps 753 mmHg 34%
18:00 +28°C° 0 mm 5 mps 753 mmHg 39%
19:00 +27°C° 0 mm 5 mps 754 mmHg 43%
20:00 +25°C° 0 mm 5 mps 754 mmHg 48%
21:00 +23°C° 0 mm 4 mps 755 mmHg 50%
22:00 +22°C° 0 mm 3 mps 755 mmHg 52%
23:00 +23°C° 0 mm 2 mps 755 mmHg 55%

4 August, Wednesday

Time Temperature Precipitation Wind Pressure Humidity
00:00 +21°C° 0 mm 2 mps 755 mmHg 58%
01:00 +21°C° 0 mm 1 mps 756 mmHg 62%
02:00 +20°C° 0 mm 1 mps 756 mmHg 65%
03:00 +20°C° 0 mm 1 mps 756 mmHg 67%
04:00 +20°C° 0 mm 1 mps 756 mmHg 68%
05:00 +18°C° 0 mm 0 mps 756 mmHg 70%
06:00 +20°C° 0 mm 0 mps 757 mmHg 63%
07:00 +22°C° 0 mm 0 mps 757 mmHg 56%
08:00 +24°C° 0 mm 0 mps 757 mmHg 49%
09:00 +27°C° 0 mm 1 mps 757 mmHg 45%
10:00 +28°C° 0 mm 1 mps 757 mmHg 40%
11:00 +30°C° 0 mm 2 mps 757 mmHg 35%
12:00 +30°C° 0 mm 2 mps 756 mmHg 34%
13:00 +31°C° 0 mm 2 mps 756 mmHg 32%
14:00 +31°C° 0 mm 2 mps 756 mmHg 30%
15:00 +31°C° 0 mm 2 mps 756 mmHg 30%
16:00 +31°C° 0 mm 2 mps 755 mmHg 30%
17:00 +31°C° 0 mm 2 mps 755 mmHg 30%
18:00 +29°C° 0 mm 2 mps 755 mmHg 34%
19:00 +27°C° 0 mm 2 mps 755 mmHg 37%
20:00 +26°C° 0 mm 2 mps 756 mmHg 41%
21:00 +25°C° 0 mm 2 mps 756 mmHg 43%
22:00 +24°C° 0 mm 2 mps 756 mmHg 45%
23:00 +23°C° 0 mm 1 mps 756 mmHg 47%
Show more